User: anonymous   Login
Location: Unspecified
(0.0000°N, 0.0000°E)
Time: 04:31:12
(UTC+00:00)
Language:

Skynet 4E - Orbit

View from above orbital plane
View from above orbital plane
View from above satellite
View from above satellite

Ground track
Ground track

The orbit data is extracted from the following two-line orbital elements,

1 25639U 99009B   18292.02596711 -.00000032  00000-0  00000+0 0  9990
2 25639  10.5110  24.9911 0002660 179.7100 190.8781  1.00272773 71966
Epoch (UTC): 19 October 2018 00:37:23
Eccentricity: 0.0002660
inclination: 10.5110°
perigee height: 35775 km
apogee height: 35797 km
right ascension of ascending node: 24.9911°
argument of perigee: 179.7100°
revolutions per day: 1.00272773
mean anomaly at epoch: 190.8781°
orbit number at epoch: 7196

The dashed part of the orbit path shows where the satellite is in the earth's shadow,  

DLR